| time (UTC) | temp F | wind direction | speed MPH | gust MPH | rain 1hr in | rain 24hr in | rain mn in | humidity % | barometer mb |
| 20260510151550 | 72 | 302 | 0.0 | 2.0 | 0.00 | 0.00 | 0.00 | 59 | 979.6 |
| 20260510151047 | 73 | 110 | 1.0 | 3.0 | 0.00 | 0.00 | 0.00 | 60 | 979.4 |
| 20260510150542 | 72 | 40 | 3.0 | 3.0 | 0.00 | 0.00 | 0.00 | 65 | 979.5 |
| 20260510150038 | 71 | 173 | 2.0 | 6.0 | 0.00 | 0.00 | 0.00 | 62 | 979.5 |
| 20260510145535 | 71 | 274 | 2.0 | 6.0 | 0.00 | 0.00 | 0.00 | 65 | 979.4 |
| 20260510145032 | 71 | 118 | 1.0 | 2.0 | 0.00 | 0.00 | 0.00 | 64 | 979.3 |
| 20260510144528 | 71 | 187 | 4.0 | 8.0 | 0.00 | 0.00 | 0.00 | 65 | 979.5 |
| 20260510144024 | 71 | 121 | 3.0 | 6.0 | 0.00 | 0.00 | 0.00 | 65 | 979.5 |
| 20260510143520 | 70 | 173 | 2.0 | 4.0 | 0.00 | 0.00 | 0.00 | 65 | 979.5 |
| 20260510143016 | 70 | 173 | 2.0 | 4.0 | 0.00 | 0.00 | 0.00 | 65 | 979.5 |
| 20260510142513 | 69 | 140 | 2.0 | 3.0 | 0.00 | 0.00 | 0.00 | 63 | 979.2 |
| 20260510142010 | 69 | 92 | 2.0 | 3.0 | 0.00 | 0.00 | 0.00 | 65 | 979.3 |
| 20260510141506 | 69 | 105 | 1.0 | 3.0 | 0.00 | 0.00 | 0.00 | 64 | 979.4 |
| 20260510141004 | 69 | 121 | 5.0 | 6.0 | 0.00 | 0.00 | 0.00 | 64 | 979.2 |
| 20260510140500 | 68 | 108 | 2.0 | 3.0 | 0.00 | 0.00 | 0.00 | 67 | 979.2 |
| 20260510135959 | 68 | 108 | 2.0 | 3.0 | 0.00 | 0.00 | 0.00 | 67 | 979.3 |
| 20260510135455 | 68 | 109 | 4.0 | 7.0 | 0.00 | 0.00 | 0.00 | 65 | 979.2 |
| 20260510134952 | 68 | 109 | 3.0 | 4.0 | 0.00 | 0.00 | 0.00 | 67 | 979.4 |
| 20260510134449 | 67 | 100 | 1.0 | 4.0 | 0.00 | 0.00 | 0.00 | 69 | 979.3 |
| 20260510133946 | 67 | 109 | 1.0 | 6.0 | 0.00 | 0.00 | 0.00 | 69 | 979.5 |
| 20260510133442 | 67 | 104 | 2.0 | 3.0 | 0.00 | 0.00 | 0.00 | 70 | 979.5 |
| 20260510132937 | 67 | 107 | 2.0 | 4.0 | 0.00 | 0.00 | 0.00 | 69 | 979.7 |
| 20260510132435 | 67 | 107 | 2.0 | 2.0 | 0.00 | 0.00 | 0.00 | 70 | 979.8 |
| 20260510131932 | 66 | 112 | 2.0 | 7.0 | 0.00 | 0.00 | 0.00 | 70 | 979.7 |
| 20260510131430 | 66 | 113 | 1.0 | 4.0 | 0.00 | 0.00 | 0.00 | 71 | 979.6 |
| 20260510130926 | 66 | 97 | 2.0 | 3.0 | 0.00 | 0.00 | 0.00 | 72 | 979.7 |
| 20260510130423 | 65 | 102 | 2.0 | 6.0 | 0.00 | 0.00 | 0.00 | 69 | 979.8 |
| 20260510125920 | 65 | 115 | 1.0 | 4.0 | 0.00 | 0.00 | 0.00 | 75 | 979.7 |
| 20260510125416 | 65 | 66 | 2.0 | 3.0 | 0.00 | 0.00 | 0.00 | 70 | 979.8 |
| 20260510124913 | 65 | 124 | 1.0 | 4.0 | 0.00 | 0.00 | 0.00 | 70 | 979.7 |
| 20260510124404 | 64 | 104 | 1.0 | 2.0 | 0.00 | 0.00 | 0.00 | 74 | 979.6 |
| 20260510123900 | 64 | 104 | 3.0 | 4.0 | 0.00 | 0.00 | 0.00 | 74 | 979.8 |
| 20260510123355 | 63 | 102 | 2.0 | 3.0 | 0.00 | 0.00 | 0.00 | 76 | 979.6 |
| 20260510122852 | 63 | 110 | 4.0 | 6.0 | 0.00 | 0.00 | 0.00 | 76 | 979.4 |
| 20260510122347 | 63 | 94 | 1.0 | 3.0 | 0.00 | 0.00 | 0.00 | 77 | 979.4 |
| 20260510121844 | 60 | 178 | 1.0 | 2.0 | 0.00 | 0.00 | 0.00 | 86 | 979.2 |
| 20260510121342 | 57 | 182 | 1.0 | 1.0 | 0.00 | 0.00 | 0.00 | 91 | 979.3 |
| 20260510120839 | 55 | 182 | 0.0 | 1.0 | 0.00 | 0.00 | 0.00 | 93 | 979.1 |
| 20260510120336 | 52 | 185 | 0.0 | 0.0 | 0.00 | 0.00 | 0.00 | 95 | 979.3 |
| 20260510115831 | 50 | 161 | 0.0 | 0.0 | 0.00 | 0.00 | 0.00 | 99 | 979.1 |
| 20260510115329 | 50 | 161 | 0.0 | 1.0 | 0.00 | 0.00 | 0.00 | 99 | 979.0 |
| 20260510114824 | 49 | 161 | 0.0 | 0.0 | 0.00 | 0.00 | 0.00 | 99 | 979.0 |
| 20260510114322 | 48 | 161 | 0.0 | 0.0 | 0.00 | 0.00 | 0.00 | 99 | 978.7 |
| 20260510113817 | 48 | 161 | 0.0 | 0.0 | 0.00 | 0.00 | 0.00 | 99 | 978.6 |
| 20260510113314 | 0 | 0.0 | 0.0 | 0.00 | 0.00 | 0.00 | 978.6 | ||
| 20260510112811 | 0 | 0.0 | 0.0 | 0.00 | 0.00 | 0.00 | 978.4 | ||
| 20260510112307 | 0 | 0.0 | 0.0 | 0.00 | 0.00 | 0.00 | 978.5 | ||
| 20260510111803 | 0 | 0.0 | 0.0 | 0.00 | 0.00 | 0.00 | 978.4 | ||
| 20260510111300 | 0 | 0.0 | 0.0 | 0.00 | 0.00 | 0.00 | 978.6 | ||
| 20260510110759 | 0 | 0.0 | 0.0 | 0.00 | 0.00 | 0.00 | 978.4 | ||
| 20260510110258 | 0 | 0.0 | 0.0 | 0.00 | 0.00 | 0.00 | 978.4 | ||
| 20260510105758 | 0 | 0.0 | 0.0 | 0.00 | 0.00 | 0.00 | 978.6 | ||
| 20260510105252 | 0 | 0.0 | 0.0 | 0.00 | 0.00 | 0.00 | 978.5 | ||
| 20260510104749 | 0 | 0.0 | 0.0 | 0.00 | 0.00 | 0.00 | 978.5 | ||
| 20260510104247 | 0 | 0.0 | 0.0 | 0.00 | 0.00 | 0.00 | 978.4 | ||
| 20260510103743 | 0 | 0.0 | 0.0 | 0.00 | 0.00 | 0.00 | 978.2 | ||
| 20260510103240 | 0 | 0.0 | 0.0 | 0.00 | 0.00 | 0.00 | 978.3 | ||
| 20260510102735 | 0 | 0.0 | 0.0 | 0.00 | 0.00 | 0.00 | 978.0 | ||
| 20260510102230 | 0 | 0.0 | 0.0 | 0.00 | 0.00 | 0.00 | 978.1 | ||
| 20260510101728 | 0 | 0.0 | 0.0 | 0.00 | 0.00 | 0.00 | 977.9 | ||
| 20260510101227 | 0 | 0.0 | 0.0 | 0.00 | 0.00 | 0.00 | 977.9 | ||
| 20260510100722 | 0 | 0.0 | 0.0 | 0.00 | 0.00 | 0.00 | 977.8 | ||
| 20260510100221 | 0 | 0.0 | 0.0 | 0.00 | 0.00 | 0.00 | 977.9 | ||
| 20260510095720 | 0 | 0.0 | 0.0 | 0.00 | 0.00 | 0.00 | 977.8 | ||
| 20260510095216 | 0 | 0.0 | 0.0 | 0.00 | 0.00 | 0.00 | 977.7 | ||
| 20260510094715 | 43 | 161 | 0.0 | 0.0 | 0.00 | 0.00 | 0.00 | 99 | 977.5 |
| 20260510094211 | 43 | 161 | 0.0 | 0.0 | 0.00 | 0.00 | 0.00 | 99 | 977.6 |
| 20260510093707 | 42 | 161 | 0.0 | 0.0 | 0.00 | 0.00 | 0.00 | 99 | 977.7 |
| 20260510093204 | 43 | 161 | 0.0 | 0.0 | 0.00 | 0.00 | 0.00 | 99 | 977.6 |
| 20260510092700 | 42 | 161 | 0.0 | 0.0 | 0.00 | 0.00 | 0.00 | 99 | 977.6 |
| 20260510092156 | 43 | 161 | 0.0 | 0.0 | 0.00 | 0.00 | 0.00 | 99 | 977.6 |
| 20260510091652 | 43 | 161 | 0.0 | 0.0 | 0.00 | 0.00 | 0.00 | 99 | 977.4 |
| 20260510091148 | 42 | 161 | 0.0 | 1.0 | 0.00 | 0.00 | 0.00 | 99 | 977.2 |
| 20260510090645 | 44 | 161 | 0.0 | 0.0 | 0.00 | 0.00 | 0.00 | 99 | 977.3 |
| 20260510090142 | 43 | 161 | 0.0 | 0.0 | 0.00 | 0.00 | 0.00 | 99 | 977.2 |
| 20260510085637 | 43 | 161 | 0.0 | 0.0 | 0.00 | 0.00 | 0.00 | 99 | 977.2 |
| 20260510085132 | 43 | 161 | 0.0 | 0.0 | 0.00 | 0.00 | 0.00 | 99 | 977.0 |
| 20260510084629 | 42 | 161 | 0.0 | 0.0 | 0.00 | 0.00 | 0.00 | 99 | 977.2 |
| 20260510084126 | 44 | 161 | 0.0 | 0.0 | 0.00 | 0.00 | 0.00 | 99 | 977.1 |
| 20260510083622 | 43 | 161 | 0.0 | 0.0 | 0.00 | 0.00 | 0.00 | 99 | 977.0 |
| 20260510083119 | 43 | 161 | 0.0 | 0.0 | 0.00 | 0.00 | 0.00 | 99 | 977.1 |
| 20260510082615 | 44 | 161 | 0.0 | 0.0 | 0.00 | 0.00 | 0.00 | 99 | 977.0 |
| 20260510082111 | 44 | 161 | 0.0 | 0.0 | 0.00 | 0.00 | 0.00 | 99 | 976.9 |
| 20260510081606 | 43 | 161 | 0.0 | 0.0 | 0.00 | 0.00 | 0.00 | 99 | 977.2 |
| 20260510081102 | 43 | 161 | 0.0 | 0.0 | 0.00 | 0.00 | 0.00 | 99 | 977.1 |
| 20260510080601 | 43 | 161 | 0.0 | 0.0 | 0.00 | 0.00 | 0.00 | 99 | 976.9 |
| 20260510080058 | 43 | 161 | 0.0 | 0.0 | 0.00 | 0.00 | 0.00 | 99 | 977.1 |
| 20260510075555 | 44 | 161 | 0.0 | 0.0 | 0.00 | 0.00 | 0.00 | 99 | 976.9 |
| 20260510075052 | 43 | 161 | 0.0 | 0.0 | 0.00 | 0.00 | 0.00 | 99 | 976.9 |
| 20260510074550 | 43 | 161 | 0.0 | 0.0 | 0.00 | 0.00 | 0.00 | 99 | 977.0 |
| 20260510074045 | 44 | 161 | 0.0 | 0.0 | 0.00 | 0.00 | 0.00 | 99 | 976.9 |
| 20260510073541 | 43 | 161 | 0.0 | 0.0 | 0.00 | 0.00 | 0.00 | 99 | 976.8 |
| 20260510073039 | 0 | 0.0 | 0.0 | 0.00 | 0.00 | 0.00 | 977.0 | ||
| 20260510072535 | 43 | 161 | 0.0 | 0.0 | 0.00 | 0.00 | 0.00 | 99 | 976.9 |
| 20260510072031 | 43 | 161 | 0.0 | 0.0 | 0.00 | 0.00 | 0.00 | 99 | 976.9 |
| 20260510071527 | 43 | 161 | 0.0 | 0.0 | 0.00 | 0.00 | 0.00 | 99 | 977.1 |
| 20260510071026 | 43 | 161 | 0.0 | 0.0 | 0.00 | 0.00 | 0.00 | 99 | 977.2 |
| 20260510070522 | 43 | 161 | 0.0 | 0.0 | 0.00 | 0.00 | 0.00 | 99 | 977.1 |
| 20260510070019 | 43 | 161 | 0.0 | 0.0 | 0.00 | 0.00 | 0.00 | 99 | 976.9 |
| 20260510065515 | 43 | 161 | 0.0 | 0.0 | 0.00 | 0.00 | 0.00 | 99 | 976.9 |
| 20260510065011 | 44 | 161 | 0.0 | 0.0 | 0.00 | 0.00 | 0.00 | 99 | 976.9 |
| 20260510064508 | 44 | 161 | 0.0 | 0.0 | 0.00 | 0.00 | 0.00 | 99 | 976.9 |
| 20260510064005 | 44 | 161 | 0.0 | 0.0 | 0.00 | 0.00 | 0.00 | 99 | 976.8 |
| 20260510063502 | 43 | 161 | 0.0 | 0.0 | 0.00 | 0.00 | 0.00 | 99 | 977.0 |
| 20260510062959 | 44 | 161 | 0.0 | 0.0 | 0.00 | 0.00 | 0.00 | 99 | 976.9 |
| 20260510062455 | 44 | 161 | 0.0 | 0.0 | 0.00 | 0.00 | 0.00 | 99 | 976.9 |
| 20260510061949 | 44 | 161 | 0.0 | 0.0 | 0.00 | 0.00 | 0.00 | 99 | 977.0 |
| 20260510061446 | 43 | 161 | 0.0 | 0.0 | 0.00 | 0.00 | 0.00 | 99 | 977.2 |
| 20260510060943 | 44 | 161 | 0.0 | 0.0 | 0.00 | 0.00 | 0.00 | 99 | 977.3 |
| 20260510060440 | 45 | 161 | 0.0 | 0.0 | 0.00 | 0.00 | 0.00 | 99 | 977.2 |
| 20260510055936 | 44 | 161 | 0.0 | 0.0 | 0.00 | 0.00 | 0.00 | 99 | 977.1 |
| 20260510055432 | 44 | 161 | 0.0 | 0.0 | 0.00 | 0.00 | 0.00 | 99 | 977.1 |
| 20260510054930 | 44 | 161 | 0.0 | 0.0 | 0.00 | 0.00 | 0.00 | 99 | 977.3 |
| 20260510054425 | 44 | 161 | 0.0 | 0.0 | 0.00 | 0.00 | 0.00 | 99 | 977.3 |
| 20260510053921 | 44 | 161 | 0.0 | 0.0 | 0.00 | 0.00 | 0.00 | 99 | 977.4 |
| 20260510053416 | 45 | 161 | 0.0 | 0.0 | 0.00 | 0.00 | 0.00 | 99 | 977.4 |
| 20260510052913 | 45 | 161 | 0.0 | 0.0 | 0.00 | 0.00 | 0.00 | 99 | 977.5 |
| 20260510052409 | 45 | 161 | 0.0 | 0.0 | 0.00 | 0.00 | 0.00 | 99 | 977.4 |
| 20260510051905 | 44 | 161 | 0.0 | 0.0 | 0.00 | 0.00 | 0.00 | 99 | 977.5 |
| 20260510051402 | 44 | 161 | 0.0 | 0.0 | 0.00 | 0.00 | 0.00 | 99 | 977.6 |
| 20260510050858 | 45 | 161 | 0.0 | 0.0 | 0.00 | 0.00 | 0.00 | 99 | 977.5 |
| 20260510050355 | 45 | 161 | 0.0 | 0.0 | 0.00 | 0.00 | 0.00 | 99 | 977.5 |
| 20260510045852 | 45 | 161 | 0.0 | 0.0 | 0.00 | 0.00 | 0.00 | 99 | 977.5 |
| 20260510045348 | 45 | 161 | 0.0 | 0.0 | 0.00 | 0.00 | 0.00 | 99 | 977.4 |
| 20260510044846 | 45 | 161 | 0.0 | 0.0 | 0.00 | 0.00 | 0.00 | 99 | 977.3 |
| 20260510044343 | 46 | 161 | 0.0 | 0.0 | 0.00 | 0.00 | 0.00 | 99 | 977.2 |
| 20260510043839 | 45 | 161 | 0.0 | 0.0 | 0.00 | 0.00 | 0.00 | 99 | 977.3 |
| 20260510043335 | 46 | 161 | 0.0 | 0.0 | 0.00 | 0.00 | 0.00 | 99 | 977.5 |
| 20260510042833 | 45 | 161 | 0.0 | 0.0 | 0.00 | 0.00 | 0.00 | 99 | 977.4 |
| 20260510042329 | 46 | 161 | 0.0 | 0.0 | 0.00 | 0.00 | 0.00 | 99 | 977.3 |
| 20260510041825 | 46 | 161 | 0.0 | 0.0 | 0.00 | 0.00 | 0.00 | 99 | 977.4 |
| 20260510041323 | 46 | 161 | 0.0 | 0.0 | 0.00 | 0.00 | 0.00 | 99 | 977.2 |
| 20260510040820 | 47 | 161 | 0.0 | 0.0 | 0.00 | 0.00 | 0.00 | 99 | 977.1 |
| 20260510040316 | 47 | 161 | 0.0 | 0.0 | 0.00 | 0.00 | 0.00 | 99 | 977.0 |
| 20260510035812 | 47 | 161 | 0.0 | 0.0 | 0.00 | 0.00 | 0.00 | 99 | 977.1 |
| 20260510035308 | 46 | 161 | 0.0 | 0.0 | 0.00 | 0.00 | 0.00 | 99 | 976.9 |
| 20260510034804 | 46 | 161 | 0.0 | 0.0 | 0.00 | 0.00 | 0.00 | 99 | 976.9 |
| 20260510034301 | 47 | 161 | 0.0 | 0.0 | 0.00 | 0.00 | 0.00 | 99 | 976.7 |
| 20260510033758 | 47 | 161 | 0.0 | 0.0 | 0.00 | 0.00 | 0.00 | 99 | 977.0 |
| 20260510033255 | 47 | 161 | 0.0 | 0.0 | 0.00 | 0.00 | 0.00 | 99 | 976.8 |
| 20260510032751 | 47 | 161 | 0.0 | 0.0 | 0.00 | 0.00 | 0.00 | 99 | 976.7 |
| 20260510032248 | 47 | 161 | 0.0 | 0.0 | 0.00 | 0.00 | 0.00 | 99 | 977.0 |
| 20260510031743 | 47 | 161 | 0.0 | 0.0 | 0.00 | 0.00 | 0.00 | 99 | 976.8 |
| 20260510031239 | 48 | 161 | 0.0 | 0.0 | 0.00 | 0.00 | 0.00 | 99 | 976.7 |
| 20260510030739 | 47 | 161 | 0.0 | 0.0 | 0.00 | 0.00 | 0.00 | 98 | 976.7 |
| 20260510030236 | 48 | 161 | 0.0 | 0.0 | 0.00 | 0.00 | 0.00 | 98 | 976.7 |
| 20260510025733 | 48 | 161 | 0.0 | 0.0 | 0.00 | 0.00 | 0.00 | 98 | 976.5 |
| 20260510025231 | 0 | 0.0 | 0.0 | 0.00 | 0.00 | 0.00 | 976.7 | ||
| 20260510024728 | 49 | 161 | 0.0 | 0.0 | 0.00 | 0.00 | 0.00 | 97 | 976.7 |
| 20260510024224 | 49 | 161 | 0.0 | 0.0 | 0.00 | 0.00 | 0.00 | 97 | 976.3 |
| 20260510023720 | 49 | 161 | 0.0 | 0.0 | 0.00 | 0.00 | 0.00 | 98 | 976.3 |
| 20260510023217 | 49 | 161 | 0.0 | 0.0 | 0.00 | 0.00 | 0.00 | 97 | 976.4 |
| 20260510022714 | 0 | 0.0 | 0.0 | 0.00 | 0.00 | 0.00 | 976.4 | ||
| 20260510022208 | 0 | 0.0 | 0.0 | 0.00 | 0.00 | 0.00 | 976.3 | ||
| 20260510021703 | 0 | 0.0 | 0.0 | 0.00 | 0.00 | 0.00 | 976.3 | ||
| 20260510021201 | 0 | 0.0 | 0.0 | 0.00 | 0.00 | 0.00 | 976.2 | ||
| 20260510020655 | 0 | 0.0 | 0.0 | 0.00 | 0.00 | 0.00 | 976.1 | ||
| 20260510020151 | 51 | 161 | 0.0 | 0.0 | 0.00 | 0.00 | 0.00 | 95 | 976.3 |
| 20260510015647 | 51 | 161 | 0.0 | 0.0 | 0.00 | 0.00 | 0.00 | 95 | 976.1 |
| 20260510015144 | 51 | 161 | 0.0 | 0.0 | 0.00 | 0.00 | 0.00 | 93 | 975.9 |
| 20260510014639 | 0 | 0.0 | 0.0 | 0.00 | 0.00 | 0.00 | 975.8 | ||
| 20260510014136 | 0 | 0.0 | 0.0 | 0.00 | 0.00 | 0.00 | 975.9 | ||
| 20260510013631 | 0 | 0.0 | 0.0 | 0.00 | 0.00 | 0.00 | 975.6 | ||
| 20260510013127 | 0 | 0.0 | 0.0 | 0.00 | 0.00 | 0.00 | 975.6 | ||
| 20260510012626 | 0 | 0.0 | 0.0 | 0.00 | 0.00 | 0.00 | 975.6 | ||
| 20260510012123 | 0 | 0.0 | 0.0 | 0.00 | 0.00 | 0.00 | 975.6 | ||
| 20260510011622 | 0 | 0.0 | 0.0 | 0.00 | 0.00 | 0.00 | 975.6 | ||
| 20260510011118 | 0 | 0.0 | 0.0 | 0.00 | 0.00 | 0.00 | 975.5 | ||
| 20260510010615 | 0 | 0.0 | 0.0 | 0.00 | 0.00 | 0.00 | 975.3 | ||
| 20260510010112 | 55 | 161 | 0.0 | 0.0 | 0.00 | 0.00 | 0.00 | 87 | 975.4 |
| 20260510005607 | 55 | 161 | 0.0 | 0.0 | 0.00 | 0.00 | 0.00 | 87 | 975.0 |
| 20260510005105 | 56 | 161 | 0.0 | 0.0 | 0.00 | 0.00 | 0.00 | 85 | 975.1 |
| 20260510004603 | 0 | 0.0 | 0.0 | 0.00 | 0.00 | 0.00 | 975.1 | ||
| 20260510004101 | 58 | 161 | 0.0 | 0.0 | 0.00 | 0.00 | 0.00 | 82 | 974.8 |
| 20260510003557 | 58 | 161 | 0.0 | 0.0 | 0.00 | 0.00 | 0.00 | 82 | 974.8 |
| 20260510003054 | 59 | 161 | 0.0 | 1.0 | 0.00 | 0.00 | 0.00 | 79 | 974.8 |
| 20260510002554 | 59 | 161 | 0.0 | 0.0 | 0.00 | 0.00 | 0.00 | 76 | 974.5 |
| 20260510002051 | 60 | 161 | 0.0 | 1.0 | 0.00 | 0.00 | 0.00 | 76 | 974.7 |
| 20260510001548 | 60 | 161 | 0.0 | 1.0 | 0.00 | 0.00 | 0.00 | 76 | 974.4 |
| 20260510001047 | 61 | 161 | 1.0 | 1.0 | 0.00 | 0.00 | 0.00 | 70 | 974.5 |
| 20260510000542 | 62 | 158 | 0.0 | 1.0 | 0.00 | 0.00 | 0.00 | 72 | 974.3 |
| 20260510000039 | 62 | 158 | 0.0 | 0.0 | 0.00 | 0.00 | 0.00 | 71 | 974.3 |
| 20260509235535 | 62 | 158 | 1.0 | 1.0 | 0.00 | 0.00 | 0.00 | 71 | 974.2 |
| 20260509235032 | 62 | 158 | 1.0 | 1.0 | 0.00 | 0.00 | 0.00 | 71 | 974.5 |
| 20260509234528 | 64 | 153 | 2.0 | 2.0 | 0.00 | 0.00 | 0.00 | 65 | 974.3 |
| 20260509234026 | 64 | 153 | 2.0 | 2.0 | 0.00 | 0.00 | 0.00 | 65 | 974.5 |
| 20260509233523 | 65 | 277 | 1.0 | 1.0 | 0.00 | 0.00 | 0.00 | 62 | 974.4 |
| 20260509233021 | 65 | 249 | 0.0 | 1.0 | 0.00 | 0.00 | 0.00 | 66 | 974.3 |
| 20260509232517 | 65 | 249 | 0.0 | 2.0 | 0.00 | 0.00 | 0.00 | 63 | 974.2 |
| 20260509232014 | 66 | 67 | 1.0 | 2.0 | 0.00 | 0.00 | 0.00 | 60 | 974.3 |
| 20260509231510 | 67 | 97 | 0.0 | 1.0 | 0.00 | 0.00 | 0.00 | 59 | 974.2 |
| 20260509231008 | 67 | 342 | 2.0 | 2.0 | 0.00 | 0.00 | 0.00 | 57 | 974.2 |
| 20260509230505 | 67 | 268 | 0.0 | 1.0 | 0.00 | 0.00 | 0.00 | 61 | 974.2 |
| 20260509230001 | 68 | 230 | 1.0 | 1.0 | 0.00 | 0.00 | 0.00 | 57 | 974.2 |
| 20260509225457 | 68 | 230 | 1.0 | 1.0 | 0.00 | 0.00 | 0.00 | 57 | 974.3 |
| 20260509224953 | 68 | 110 | 1.0 | 2.0 | 0.00 | 0.00 | 0.00 | 57 | 974.5 |
| 20260509224449 | 68 | 179 | 1.0 | 2.0 | 0.00 | 0.00 | 0.00 | 56 | 974.4 |
| 20260509223946 | 68 | 182 | 1.0 | 2.0 | 0.00 | 0.00 | 0.00 | 56 | 974.6 |
| 20260509223442 | 67 | 182 | 0.0 | 3.0 | 0.00 | 0.00 | 0.00 | 58 | 974.5 |
| 20260509222940 | 69 | 207 | 2.0 | 4.0 | 0.00 | 0.00 | 0.00 | 55 | 974.8 |
| 20260509222435 | 68 | 223 | 1.0 | 2.0 | 0.00 | 0.00 | 0.00 | 56 | 974.6 |
| 20260509221931 | 69 | 262 | 4.0 | 6.0 | 0.00 | 0.00 | 0.00 | 56 | 974.8 |
| 20260509221428 | 69 | 199 | 2.0 | 6.0 | 0.00 | 0.00 | 0.00 | 55 | 974.7 |
| 20260509220924 | 69 | 336 | 4.0 | 6.0 | 0.00 | 0.00 | 0.00 | 56 | 974.5 |
| 20260509220420 | 68 | 255 | 0.0 | 0.0 | 0.00 | 0.00 | 0.00 | 56 | 974.7 |
| 20260509215916 | 67 | 213 | 0.0 | 3.0 | 0.00 | 0.00 | 0.00 | 58 | 974.9 |
| 20260509215412 | 68 | 271 | 0.0 | 2.0 | 0.00 | 0.00 | 0.00 | 55 | 974.7 |
| 20260509214910 | 69 | 244 | 3.0 | 7.0 | 0.00 | 0.00 | 0.00 | 54 | 974.6 |
| 20260509214407 | 69 | 308 | 6.0 | 7.0 | 0.00 | 0.00 | 0.00 | 53 | 974.6 |
| 20260509213904 | 69 | 314 | 0.0 | 3.0 | 0.00 | 0.00 | 0.00 | 54 | 974.8 |
| 20260509213359 | 68 | 266 | 1.0 | 2.0 | 0.00 | 0.00 | 0.00 | 54 | 974.8 |
| 20260509212857 | 0 | 0.0 | 0.0 | 0.00 | 0.00 | 0.00 | 974.8 | ||
| 20260509212354 | 67 | 64 | 2.0 | 2.0 | 0.00 | 0.00 | 0.00 | 54 | 974.6 |
| 20260509211850 | 67 | 64 | 2.0 | 2.0 | 0.00 | 0.00 | 0.00 | 54 | 974.6 |
| 20260509211346 | 67 | 156 | 6.0 | 7.0 | 0.00 | 0.00 | 0.00 | 54 | 974.8 |
| 20260509210842 | 68 | 165 | 0.0 | 1.0 | 0.00 | 0.00 | 0.00 | 54 | 974.4 |
| 20260509210340 | 67 | 166 | 2.0 | 3.0 | 0.00 | 0.00 | 0.00 | 55 | 974.6 |
| 20260509205840 | 68 | 72 | 2.0 | 3.0 | 0.00 | 0.00 | 0.00 | 55 | 974.4 |
| 20260509205334 | 68 | 72 | 0.0 | 1.0 | 0.00 | 0.00 | 0.00 | 57 | 974.5 |
| 20260509204831 | 69 | 150 | 1.0 | 3.0 | 0.00 | 0.00 | 0.00 | 56 | 974.4 |
| 20260509204328 | 69 | 259 | 1.0 | 3.0 | 0.00 | 0.00 | 0.00 | 53 | 974.2 |
| 20260509203824 | 68 | 239 | 1.0 | 2.0 | 0.00 | 0.00 | 0.00 | 57 | 974.4 |
| 20260509203321 | 68 | 176 | 0.0 | 3.0 | 0.00 | 0.00 | 0.00 | 54 | 974.4 |
| 20260509202817 | 68 | 99 | 1.0 | 2.0 | 0.00 | 0.00 | 0.00 | 57 | 974.2 |
| 20260509202314 | 68 | 95 | 2.0 | 4.0 | 0.00 | 0.00 | 0.00 | 54 | 974.3 |
| 20260509201813 | 68 | 101 | 1.0 | 2.0 | 0.00 | 0.00 | 0.00 | 59 | 974.3 |
| 20260509201310 | 68 | 123 | 2.0 | 2.0 | 0.00 | 0.00 | 0.00 | 54 | 974.2 |
| 20260509200806 | 69 | 40 | 1.0 | 4.0 | 0.00 | 0.00 | 0.00 | 56 | 974.2 |
| 20260509200302 | 69 | 59 | 1.0 | 2.0 | 0.00 | 0.00 | 0.00 | 56 | 974.2 |
| 20260509195758 | 69 | 1 | 3.0 | 4.0 | 0.00 | 0.00 | 0.00 | 57 | 974.4 |
| 20260509195253 | 68 | 42 | 0.0 | 1.0 | 0.00 | 0.00 | 0.00 | 56 | 974.6 |
| 20260509194748 | 68 | 36 | 3.0 | 8.0 | 0.00 | 0.00 | 0.00 | 56 | 974.6 |
| 20260509194244 | 69 | 95 | 1.0 | 2.0 | 0.00 | 0.00 | 0.00 | 54 | 974.5 |
| 20260509193741 | 69 | 99 | 3.0 | 4.0 | 0.00 | 0.00 | 0.00 | 53 | 974.6 |
| 20260509193241 | 68 | 112 | 0.0 | 3.0 | 0.00 | 0.00 | 0.00 | 60 | 974.3 |
| 20260509192738 | 68 | 293 | 1.0 | 2.0 | 0.00 | 0.00 | 0.00 | 55 | 974.5 |
| 20260509192238 | 68 | 309 | 1.0 | 3.0 | 0.00 | 0.00 | 0.00 | 54 | 974.5 |
| 20260509191734 | 67 | 119 | 3.0 | 3.0 | 0.00 | 0.00 | 0.00 | 59 | 974.6 |
| 20260509191230 | 67 | 176 | 4.0 | 4.0 | 0.00 | 0.00 | 0.00 | 54 | 974.6 |
| 20260509190726 | 68 | 148 | 5.0 | 6.0 | 0.00 | 0.00 | 0.00 | 56 | 974.5 |
| 20260509190223 | 68 | 159 | 2.0 | 7.0 | 0.00 | 0.00 | 0.00 | 55 | 974.4 |
| 20260509185721 | 69 | 182 | 0.0 | 6.0 | 0.00 | 0.00 | 0.00 | 52 | 974.3 |
| 20260509185217 | 70 | 103 | 3.0 | 3.0 | 0.00 | 0.00 | 0.00 | 57 | 974.3 |
| 20260509184715 | 69 | 92 | 2.0 | 3.0 | 0.00 | 0.00 | 0.00 | 61 | 974.5 |
| 20260509184212 | 68 | 17 | 2.0 | 4.0 | 0.00 | 0.00 | 0.00 | 56 | 974.4 |
| 20260509183708 | 68 | 139 | 4.0 | 4.0 | 0.00 | 0.00 | 0.00 | 59 | 974.4 |
| 20260509183203 | 68 | 231 | 4.0 | 6.0 | 0.00 | 0.00 | 0.00 | 58 | 974.6 |
| 20260509182659 | 68 | 110 | 2.0 | 4.0 | 0.00 | 0.00 | 0.00 | 56 | 974.4 |
| 20260509182157 | 67 | 87 | 2.0 | 6.0 | 0.00 | 0.00 | 0.00 | 57 | 974.6 |
| 20260509181654 | 67 | 19 | 2.0 | 3.0 | 0.00 | 0.00 | 0.00 | 59 | 974.6 |
| 20260509181152 | 67 | 339 | 2.0 | 4.0 | 0.00 | 0.00 | 0.00 | 58 | 974.6 |
| 20260509180648 | 67 | 202 | 2.0 | 4.0 | 0.00 | 0.00 | 0.00 | 58 | 974.6 |
| 20260509180144 | 68 | 297 | 1.0 | 4.0 | 0.00 | 0.00 | 0.00 | 62 | 974.7 |
| 20260509175641 | 67 | 44 | 3.0 | 4.0 | 0.00 | 0.00 | 0.00 | 59 | 974.6 |
| 20260509175138 | 67 | 296 | 1.0 | 9.0 | 0.00 | 0.00 | 0.00 | 59 | 974.7 |
| 20260509174633 | 67 | 264 | 5.0 | 10.0 | 0.00 | 0.00 | 0.00 | 56 | 974.7 |
| 20260509174128 | 67 | 348 | 2.0 | 7.0 | 0.00 | 0.00 | 0.00 | 56 | 974.9 |
| 20260509173625 | 66 | 196 | 3.0 | 6.0 | 0.00 | 0.00 | 0.00 | 58 | 974.8 |
| 20260509173121 | 65 | 102 | 2.0 | 3.0 | 0.00 | 0.00 | 0.00 | 61 | 975.0 |
| 20260509172618 | 65 | 182 | 1.0 | 4.0 | 0.00 | 0.00 | 0.00 | 62 | 974.7 |
| 20260509172114 | 65 | 34 | 3.0 | 7.0 | 0.00 | 0.00 | 0.00 | 59 | 975.2 |
| 20260509171609 | 66 | 189 | 4.0 | 4.0 | 0.00 | 0.00 | 0.00 | 58 | 975.1 |
| 20260509171106 | 65 | 119 | 5.0 | 7.0 | 0.00 | 0.00 | 0.00 | 59 | 975.0 |
| 20260509170602 | 65 | 105 | 3.0 | 8.0 | 0.00 | 0.00 | 0.00 | 59 | 975.1 |
| 20260509170058 | 65 | 110 | 3.0 | 9.0 | 0.00 | 0.00 | 0.00 | 57 | 975.0 |
| 20260509165557 | 65 | 119 | 4.0 | 7.0 | 0.00 | 0.00 | 0.00 | 61 | 975.2 |
| 20260509165052 | 64 | 108 | 3.0 | 7.0 | 0.00 | 0.00 | 0.00 | 57 | 975.2 |
| 20260509164549 | 65 | 113 | 3.0 | 6.0 | 0.00 | 0.00 | 0.00 | 62 | 975.2 |
| 20260509164044 | 65 | 72 | 3.0 | 7.0 | 0.00 | 0.00 | 0.00 | 56 | 975.2 |
| 20260509163543 | 64 | 62 | 4.0 | 6.0 | 0.00 | 0.00 | 0.00 | 57 | 975.3 |
| 20260509163038 | 65 | 127 | 2.0 | 4.0 | 0.00 | 0.00 | 0.00 | 57 | 975.3 |
| 20260509162535 | 64 | 225 | 2.0 | 8.0 | 0.00 | 0.00 | 0.00 | 55 | 975.1 |
| 20260509162031 | 64 | 230 | 2.0 | 6.0 | 0.00 | 0.00 | 0.00 | 58 | 975.3 |
| 20260509161528 | 64 | 108 | 5.0 | 7.0 | 0.00 | 0.00 | 0.00 | 59 | 975.3 |
| 20260509161027 | 64 | 120 | 2.0 | 2.0 | 0.00 | 0.00 | 0.00 | 60 | 975.3 |
| 20260509160523 | 64 | 233 | 3.0 | 4.0 | 0.00 | 0.00 | 0.00 | 54 | 975.4 |
| 20260509160019 | 65 | 206 | 2.0 | 3.0 | 0.00 | 0.00 | 0.00 | 54 | 975.3 |
| 20260509155515 | 63 | 107 | 4.0 | 6.0 | 0.00 | 0.00 | 0.00 | 57 | 975.3 |
| 20260509155011 | 63 | 152 | 1.0 | 2.0 | 0.00 | 0.00 | 0.00 | 58 | 975.2 |
| 20260509154508 | 63 | 154 | 2.0 | 3.0 | 0.00 | 0.00 | 0.00 | 57 | 975.2 |
| 20260509154006 | 63 | 342 | 1.0 | 2.0 | 0.00 | 0.00 | 0.00 | 58 | 975.2 |
| 20260509153502 | 63 | 343 | 1.0 | 1.0 | 0.00 | 0.00 | 0.00 | 59 | 975.2 |
| 20260509152959 | 63 | 338 | 0.0 | 2.0 | 0.00 | 0.00 | 0.00 | 60 | 975.3 |
| 20260509152455 | 62 | 167 | 0.0 | 1.0 | 0.00 | 0.00 | 0.00 | 61 | 975.1 |
| 20260509151952 | 62 | 168 | 1.0 | 1.0 | 0.00 | 0.00 | 0.00 | 58 | 975.1 |